User: anonymous   Login
Location: Unspecified
(0.0000°N, 0.0000°E)
Time: 10:27:37
(UTC+01:00)
Language:

NATO 3D Rocket - Orbit

View from above orbital plane
View from above orbital plane
View from above satellite
View from above satellite

Ground track
Ground track

The orbit data is extracted from the following two-line orbital elements,

1 15392U 84115B   17053.19720774  .00000137  00000-0 -26319-4 0  9999
2 15392  21.4924 116.5661 1034473 165.0190 198.3389 12.45541272469670
Epoch (UTC): 22 February 2017 04:43:58
Eccentricity: 0.1034473
inclination: 21.4924°
perigee height: 670 km
apogee height: 2296 km
right ascension of ascending node: 116.5661°
argument of perigee: 165.0190°
revolutions per day: 12.45541272
mean anomaly at epoch: 198.3389°
orbit number at epoch: 46967

The dashed part of the orbit path shows where the satellite is in the earth's shadow,  

DLR